Location: A O Calhoun Middle School
(33.2198°N, 97.1397°W)
Time: 15:44:33
(UTC+00:00)

DELTA 2 R/B (1) - Visible Passes

Search period start: 03 July 2022 00:00
Search period end: 13 July 2022 00:00
Orbit: 790 x 802 km, 39.6° (Epoch: 03 July)

Date Brightness Start Highest point End Pass type
(mag) Time Alt. Az. Time Alt. Az. Time Alt. Az.
03 Jul 3.6 02:19:33 10° WNW 02:25:09 85° SSW 02:30:26 12° ESE visible
03 Jul 5.0 04:06:50 10° W 04:11:09 23° SW 04:11:11 23° SW visible
04 Jul 4.9 03:35:40 10° W 03:40:11 25° SW 03:41:41 23° SSW visible
05 Jul 4.9 03:04:31 10° W 03:09:13 28° SW 03:12:14 18° S visible
06 Jul 4.8 02:33:24 10° W 02:38:14 31° SW 02:42:51 11° SSE visible
07 Jul 4.8 02:02:18 10° W 02:07:17 34° SW 02:12:15 10° SSE visible
